Terminal Aerodrome Forecast
Issued by NWS

Home | Current Version | Previous Version | Graphics & Text | Print | Product List | Glossary On
Versions: 1 2 3 4 5 6 7 8 9 10 11 12 13 14 15 16 17 18
000
FTUS43 KMPX 280535
TAFRWF
TAF
KRWF 280535Z 2806/2906 18004KT P6SM SCT100 BKN250
     FM281400 16015G24KT P6SM BKN100 OVC250
     FM281700 17018G28KT P6SM FEW070 BKN150
     FM290100 19011KT P6SM SCT050 BKN080=

USA.gov is the U.S. government's official web portal to all federal, state and local government web resources and services.